IRIDIUM 33 DEB, 46974

Orbit data source: Space-Track

IRIDIUM 33 DEB, 46974 is space debris in LEO originally from a launch on Sun, 14 Sep 1997 UTC launched from the Tyuratam Missile And Space Complex (TTMTR). The debris from Iridium 33, an American commercial communications satellite, has been tracked extensively since its accidental collision with the defunct Russian satellite Cosmos 2251 in 2009. This event, occurring at high speed in low Earth orbit (LEO), generated thousands of pieces of space debris, significantly increasing the risk of further collisions. The Iridium 33 debris cloud has impacted space traffic management and orbital debris mitigation strategies, making it a subject of ongoing study in space situational awareness.

Loading next visibility...
Identifier
46974, 1997-051ACG
Orbit
LEO
Country
Flag of USUS
Related business
Manufacturer
Unknown
Mission
Spacecraft
Bus & Motor
Unknown
Mass
Unknown
Launch date (UTC)
1997-09-14 (29 years ago)
Launch vehicle
Unknown
Launch site
Tyuratam Missile And Space Complex (TTMTR)
Object type
Payload
Rocket body
Debris
Shape & HBR
Unknown shape, 0.1 m
Radar Cross Section
Small (<0.1 m²)

Expand to show TLE details & history
Last TLE update: 1 week ago

TLE from 1 week ago
0 IRIDIUM 33 DEB
1 46974U 97051ACG 26166.34590047  .00005087  00000-0  12946-2 0  9999
2 46974  86.2989  24.3808 0086074 294.3937  64.8301 14.48289531601779
Epoch: 2026-06-15T08:18Z
TLE epoch observation values (Epoch: 2026-06-15T08:18:05.800Z)
Latitude
-0.00005°
Longitude
-3.77698°
Altitude
708.713 km
Speed
7.515 km/s
True Right ascension
01h 37m 31s
True Declination
0° 00' 00"
Sunlit
Object was in daylight at epoch
Visualization orbit readout
Latitude
Unknown
Longitude
Unknown
Altitude
Unknown
Speed
Unknown
Apparent Right ascension
Unknown
Apparent Declination
Unknown
Sunlit
N/A
Visualization observer readout
Local Sidereal Time
21:40:06
Azimuth
Unknown
Elevation
Unknown
Doppler factor
Unknown
Orbital elements
Apogee altitude
789.354 km
Perigee altitude
667.02 km
Semi-major axis
7,106.324 km
Eccentricity
0.00861
Inclination
86.2989°
RAAN
24.3808°
Arg. of periapsis
294.3937°
True anomaly
65.72685°
Mean anomaly
64.8301°
Eccentric anomaly
65.27807°
Mean motion
3.62306 °/min
Orbital period
99.36 mins
BSTAR
0.0012946
Loading maneuver chart data...
Computing Atmospheric mass density...

Documentation

Showing up to 5 results
|